Вернуться в каталог

STARLINK-11486

АктивенСвязьVLEO
NORAD 62467·PAYLOAD·🇺🇸 United States

Запущен Dec 31, 2024 с Cape Canaveral Space Force Station

Loading…

Ближайшие Пролёты (ближайшие 24 часа)

TLE

СвежийSource: CelesTrak SupGP

Эпоха: Sep 14, 2026, 20:48 UTC

1 62467C 24254F   26257.86715278  .00030146  00000+0  23448-3 0  2572
2 62467  43.0004 162.9951 0001564 259.5193 345.9319 15.70789808    19

Отслеживайте STARLINK-11486 в реальном времени с AllMySat

Download on the App Store